Regional Weather Roundup
Issued by NWS Bismarck, ND

Home | Current Version | Previous Version | Text Only | Print | Product List | Glossary On
Versions: 1 2 3 4 5 6 7 8 9 10 11 12 13 14 15 16 17 18 19 20 21 22 23 24 25 26 27 28 29 30 31 32 33 34 35 36 37 38 39 40 41 42 43 44 45 46 47 48 49 50
000
ASUS43 KBIS 251802
RWRBIS

NWR BROADCAST TEXT
NATIONAL WEATHER SERVICE BISMARCK ND
100 PM CDT SUN SEP 25 2016

NOTE: "FAIR" INDICATES FEW OR NO CLOUDS BELOW 12,000 FEET WITH NO
SIGNIFICANT WEATHER AND/OR OBSTRUCTIONS TO VISIBILITY.


CITY           SKY/WX    TMP DP  RH WIND       PRES   REMARKS
WILLISTON      SUNNY     61  35  37 NW25G39   30.20R
MINOT          SUNNY     60  39  45 W26G40    30.04R
MINOT AFB      SUNNY     60  40  47 NW33G45   30.02R
BISMARCK       MOSUNNY   61  36  39 NW29G40   30.10R
DICKINSON      MOSUNNY   57  33  40 NW30G43   30.20S
GARRISON         N/A     60  37  42 NW35G49   30.09R
HETTINGER ARPT SUNNY     58  34  40 NW24G38   30.25S
JAMESTOWN      PTSUNNY   58  46  64 NW30G44   29.94R
CARRINGTON     MOCLDY    59  45  58 NW26G44   29.97R
HAZEN          FAIR      59  36  41 NW30G45   30.14R
RUGBY          FAIR      57  43  58 NW31G41   29.95R
STANLEY        FAIR      57  39  51 NW23G35   30.14S
$$

CITY           SKY/WX    TMP DP  RH WIND       PRES   REMARKS
GRAND FORKS    CLOUDY    57  51  80 NW22G36   29.78R
GRAND FORKS AF CLOUDY    57  52  82 NW28G35   29.79R
DEVILS LAKE    CLOUDY    54  47  77 NW31G40   29.89R
FARGO          CLOUDY    62  50  64 W24G31    29.83R
CANDO          CLOUDY    54  48  82 NW23G33   29.92R
CAVALIER       LGT RAIN  54  52  94 NW17G26   29.77R
GRAFTON        MOCLDY    55  55 100 NW22G32   29.78R
GWINNER        CLOUDY    61  46  59 NW23G37   29.94R
LANGDON        CLOUDY    52  50  93 NW26G38   29.82R
ROLLA          MOCLDY    50  41  71 NW25G37   29.91R
WALHALLA       LGT RAIN  52  48  87 NW16G33   29.78R
$$

CITY           SKY/WX    TMP DP  RH WIND       PRES   REMARKS
ABERDEEN       CLOUDY    63  44  50 NW26G40   30.03R
MOBRIDGE       MOSUNNY   63  38  39 NW30G40   30.10R
BUFFALO          N/A     59  32  36 NW30G37   30.22F
RAPID CITY     SUNNY     62  28  27 NW25G33   30.34S
GLASGOW        SUNNY     62  32  32 W16G23    30.28F
SIDNEY         SUNNY     62  35  36 NW23G33   30.23S
WOLF POINT     SUNNY     61  41  47 W13       30.27S
GLENDIVE       SUNNY     59  36  42 NW16G23   30.30R
MILES CITY     SUNNY     61  38  42 W12       30.34F
BAKER          SUNNY     56  33  42 NW21G29   30.31S
$$

CITY           SKY/WX    TMP DP  RH WIND       PRES   REMARKS
BILLINGS       MOSUNNY   59  38  45 S8        30.38F
GREAT FALLS    SUNNY     61  33  35 SW16G24   30.35F
$$




USA.gov is the U.S. government's official web portal to all federal, state and local government web resources and services.